Wind_Speed
32 32 32 32 31 30 28 26 24 21 19 17 17 17 17 16 15 14 13 13 13 13 14 13 12 12 12 11 11 11 11 11 11 11 12 12 12 12 12 13 14 14 15 16
31 31 33 33 33 32 30 28 26 23 20 18 18 17 17 16 16 16 15 14 14 14 14 14 12 12 13 13 13 13 12 12 13 13 14 14 14 14 15 15 15 16 17 17
29 29 32 34 33 33 31 29 27 24 21 20 18 18 17 17 17 17 16 16 16 16 16 15 14 13 14 14 14 14 14 15 15 15 16 16 15 16 17 17 17 17 18 18
30 29 32 31 31 32 32 30 28 26 24 22 20 19 18 18 17 17 18 17 17 17 17 16 16 15 15 15 15 16 16 16 16 16 17 18 17 18 18 19 19 19 19 19
32 32 31 31 31 31 31 30 29 27 26 24 22 21 20 19 18 19 18 18 18 18 18 17 17 17 17 17 17 17 17 17 17 18 18 18 19 19 20 20 20 20 21 21
35 34 33 31 31 31 31 31 29 28 27 26 24 22 20 20 20 20 20 20 20 20 19 19 19 19 19 20 19 19 19 19 19 19 19 19 20 20 20 21 21 21 22 22
39 38 36 33 32 32 32 31 30 29 28 27 25 24 22 22 23 23 22 22 23 22 21 21 21 21 21 21 20 20 19 19 20 20 20 20 21 22 22 22 22 23 23 23
42 40 39 35 33 33 33 32 32 30 29 28 27 26 25 24 24 24 24 24 24 23 23 23 22 22 20 20 20 20 20 20 20 21 21 22 23 23 23 24 24 24 24 24
44 42 39 36 35 34 33 33 32 32 31 30 29 28 27 27 27 26 25 25 26 25 25 23 23 21 20 20 21 21 22 21 21 22 23 24 24 24 25 25 25 25 25 25
44 43 40 37 35 34 32 32 32 32 32 31 30 30 30 29 28 28 27 26 25 25 25 24 23 22 21 21 21 21 22 22 23 24 24 24 25 25 26 26 26 26 25 26
44 43 40 38 36 34 33 32 32 32 32 31 30 30 29 29 29 29 27 25 25 26 25 25 25 24 22 21 21 21 22 22 23 23 24 24 25 25 25 26 26 26 26 26
42 42 40 38 37 36 35 34 33 32 31 30 30 30 29 28 28 27 27 26 26 25 25 24 24 23 22 21 21 22 22 23 23 24 24 25 25 25 25 26 26 26 26 26
41 40 39 38 37 36 35 34 33 32 31 30 29 29 28 28 27 25 25 24 24 23 23 23 23 22 21 21 21 22 23 23 23 23 24 24 24 25 25 25 25 25 25 26
39 38 38 38 37 36 36 35 33 31 30 30 30 29 28 27 26 25 24 24 24 23 23 23 22 22 21 21 22 22 22 23 23 23 23 24 24 24 24 23 23 24 24 25
37 37 36 37 36 34 34 34 33 32 31 30 29 29 28 27 27 26 25 24 24 24 23 23 23 23 23 23 23 23 23 23 22 23 23 23 23 23 23 22 23 24 24 25
36 34 34 35 34 33 32 32 32 31 30 29 29 29 28 28 27 26 25 24 24 24 23 23 23 24 24 24 23 23 22 22 22 22 22 22 22 22 22 22 23 24 24 24
33 33 32 33 32 31 30 30 30 29 28 28 27 27 26 26 25 24 24 24 24 23 22 22 23 23 23 23 22 22 22 22 21 21 21 21 22 22 22 22 23 23 23 24
30 30 29 28 28 29 28 28 28 28 27 27 26 26 26 25 24 23 23 23 22 21 20 20 21 22 22 21 21 21 21 20 20 20 21 21 21 22 22 22 23 23 24 24
26 26 26 25 25 25 26 27 26 25 24 25 25 25 25 24 23 22 22 22 21 21 20 21 21 21 20 19 19 18 19 19 19 19 20 20 21 21 21 22 22 23 23 24
24 24 24 23 22 23 24 24 24 24 23 22 23 23 23 23 22 22 22 21 21 20 20 20 20 19 18 18 17 17 18 19 19 19 19 20 20 20 21 21 21 21 22 23
22 21 21 21 22 22 22 22 22 22 21 21 20 21 21 21 21 21 21 20 19 19 19 18 18 18 17 17 17 17 17 18 19 19 20 20 20 20 21 21 22 22 23 24
20 20 19 20 20 21 20 20 20 20 20 19 18 18 19 19 19 19 19 18 17 17 16 16 17 17 17 16 16 17 17 17 18 18 19 19 19 20 21 22 22 23 24 25
19 19 19 19 20 20 19 19 19 18 19 19 18 17 17 17 17 17 17 16 16 15 15 15 15 15 15 15 16 16 17 17 17 17 18 19 19 20 21 22 23 24 24 25
17 18 19 19 19 18 18 18 18 17 17 18 18 17 17 16 16 15 15 15 15 15 14 14 13 13 14 14 15 15 16 16 17 17 18 19 20 21 22 23 24 24 24 24
17 17 17 17 17 17 17 17 17 16 15 15 16 16 16 15 15 14 14 14 13 14 13 13 13 13 13 14 14 15 16 17 18 18 19 20 21 22 23 23 23 24 24 24
16 16 16 16 16 16 16 15 15 14 13 13 14 14 13 13 13 13 13 12 12 12 12 12 12 12 12 14 15 16 17 18 19 20 21 22 22 22 23 23 24 25 25 25
15 15 15 15 15 15 15 14 14 14 13 12 12 11 11 11 11 11 11 11 11 11 11 12 12 12 13 15 16 17 18 19 20 21 21 22 22 23 24 25 25 26 26 26
Wind_Direction
231 229 231 233 234 238 243 248 253 257 259 259 260 260 262 265 270 277 285 289 296 307 312 307 302 300 299 299 299 299 298 296 296 297 299 301 301 299 294 287 283 281 280 276
230 228 230 231 233 237 242 247 252 256 258 258 259 260 261 263 267 275 282 286 290 302 308 302 298 297 297 295 296 294 292 293 292 292 293 294 295 293 293 291 288 284 282 280
229 228 229 231 233 236 241 246 251 255 258 259 261 262 262 264 268 272 279 285 291 297 306 301 294 294 294 293 293 292 290 291 291 289 289 289 290 290 289 288 286 285 283 281
233 230 232 233 234 238 242 246 250 254 258 261 262 262 262 265 270 273 280 285 291 294 298 298 299 296 295 291 288 288 288 289 289 289 289 288 288 289 290 290 287 285 284 283
235 235 237 236 235 238 242 245 250 254 258 261 261 262 263 268 273 276 282 287 290 290 292 296 297 300 298 292 287 283 283 286 288 288 288 288 287 289 290 290 289 286 286 283
237 239 239 240 241 242 243 246 249 253 256 260 262 262 264 267 272 276 280 285 288 290 292 293 292 295 297 293 288 281 282 285 285 286 286 287 288 289 291 290 288 286 285 283
239 241 242 242 244 245 246 247 248 251 254 258 260 262 263 266 271 276 281 283 286 290 291 293 291 290 291 290 286 282 282 286 284 284 285 286 288 289 290 289 288 288 287 286
240 242 243 245 248 248 249 248 249 250 253 256 257 259 262 267 271 276 279 281 283 287 289 290 291 288 286 284 283 283 282 282 283 283 285 287 288 289 290 291 288 287 287 286
238 241 244 246 248 250 249 250 250 251 252 254 255 258 261 266 269 272 275 278 280 283 284 286 289 288 282 282 282 284 282 280 281 283 284 286 287 288 289 290 289 288 287 285
238 240 243 245 247 250 250 251 250 251 252 254 255 258 261 265 268 270 272 277 279 282 282 284 287 285 285 284 282 282 281 281 281 283 284 284 285 287 288 289 288 288 287 286
238 240 241 243 245 248 250 251 251 252 252 253 256 258 260 263 268 270 269 273 279 283 284 285 284 282 282 282 281 280 282 284 284 285 285 285 286 287 288 288 287 287 287 286
236 238 240 241 243 246 248 249 251 251 252 253 255 257 259 261 265 269 271 272 278 282 282 282 280 278 279 279 281 282 283 284 286 286 285 286 286 286 287 287 287 287 287 288
236 237 238 240 242 243 246 249 250 251 250 251 253 256 258 261 263 267 270 272 276 277 278 279 277 274 275 278 282 284 285 285 285 285 285 286 288 288 287 287 287 287 287 288
235 236 236 237 240 243 245 247 247 246 248 248 251 253 257 259 262 265 268 270 271 272 274 276 275 274 275 278 281 284 286 285 285 285 286 287 289 290 290 288 289 289 290 292
234 235 235 236 239 241 242 243 243 244 248 248 248 251 255 258 263 264 266 269 269 271 273 274 275 275 275 278 281 283 285 285 285 286 287 288 288 290 290 290 290 291 292 294
231 232 234 234 236 239 240 240 241 243 245 246 247 251 254 257 259 259 263 265 267 269 271 273 276 275 275 278 280 282 284 285 286 287 287 288 289 289 289 290 292 292 292 293
229 231 232 234 235 236 238 238 239 240 243 245 245 247 249 252 253 255 258 262 264 267 271 273 275 275 276 277 279 282 284 284 285 286 287 287 288 289 290 291 292 293 294 294
229 230 231 232 232 236 237 235 234 237 241 243 243 244 246 249 251 252 255 258 261 264 268 271 273 275 276 277 279 281 282 283 283 285 287 288 289 291 292 293 294 295 296 296
228 228 229 230 231 230 229 231 233 235 238 240 242 245 245 248 249 248 250 253 258 264 268 270 272 274 274 276 277 279 280 281 284 286 288 290 292 293 293 294 295 297 298 298
222 225 227 228 228 226 228 230 231 233 236 238 240 243 244 245 245 247 250 253 259 264 267 269 271 273 273 274 275 276 279 281 284 287 289 291 291 290 293 297 299 301 302 303
220 220 221 224 225 225 225 226 227 230 232 235 239 240 240 241 243 246 250 253 257 262 264 266 268 270 270 272 273 276 279 281 284 288 291 292 292 293 296 299 301 302 304 306
213 214 216 218 219 220 222 223 225 227 230 233 235 236 237 238 240 243 246 251 255 260 262 264 266 268 268 269 271 276 280 283 286 289 292 294 295 297 299 300 303 304 306 307
207 207 209 212 214 217 218 221 223 224 227 230 232 233 235 236 238 241 244 247 253 257 261 264 265 266 268 270 273 277 282 285 288 293 296 298 300 301 303 304 306 307 308 308
201 204 207 208 210 212 215 218 221 224 226 229 230 229 229 230 234 237 241 246 252 258 262 263 263 265 269 273 277 283 286 289 292 296 299 302 303 304 305 307 308 308 308 308
199 201 204 204 205 207 211 215 218 220 222 222 221 219 220 223 228 233 239 245 250 255 258 260 263 268 274 278 283 287 291 294 296 299 302 304 305 306 306 307 308 309 310 310
194 195 196 197 199 201 203 206 209 209 210 209 208 211 216 221 226 232 239 245 250 253 256 260 268 275 281 285 289 291 295 297 300 302 304 305 306 307 307 309 309 310 310 309
188 191 192 192 193 194 196 199 199 199 203 204 207 213 218 221 225 231 238 244 251 256 260 265 272 279 285 289 291 293 297 300 302 304 305 306 306 306 307 308 308 308 308 308
Height
5843 5847 5849 5853 5857 5860 5863 5865 5868 5871 5873 5875 5876 5877 5878 5879 5880 5880 5880 5879 5878 5878 5877 5875 5874 5873 5873 5872 5871 5870 5869 5869 5868 5867 5867 5866 5865 5864 5863 5862 5862 5861 5860 5860
5836 5841 5844 5847 5851 5854 5857 5860 5863 5866 5869 5871 5872 5873 5874 5875 5876 5877 5877 5876 5876 5875 5874 5872 5871 5871 5870 5869 5868 5867 5867 5866 5865 5865 5864 5863 5862 5861 5860 5859 5858 5857 5857 5856
5831 5835 5837 5841 5845 5849 5852 5855 5858 5861 5865 5866 5868 5869 5870 5871 5872 5873 5873 5873 5872 5872 5871 5869 5868 5867 5866 5866 5865 5864 5864 5863 5862 5861 5860 5859 5859 5858 5857 5855 5854 5853 5852 5852
5824 5829 5831 5838 5840 5843 5847 5850 5853 5856 5859 5861 5863 5864 5866 5867 5868 5869 5869 5869 5869 5868 5867 5865 5864 5863 5862 5861 5861 5860 5859 5859 5858 5857 5856 5855 5854 5853 5852 5851 5850 5849 5847 5846
5818 5822 5826 5831 5834 5838 5841 5844 5848 5851 5853 5856 5858 5859 5861 5863 5863 5864 5864 5864 5864 5863 5862 5861 5860 5859 5858 5857 5856 5855 5855 5854 5853 5853 5852 5851 5850 5849 5847 5846 5845 5844 5842 5841
5811 5815 5819 5825 5829 5832 5836 5838 5842 5845 5847 5850 5852 5854 5857 5858 5858 5859 5859 5859 5858 5857 5857 5856 5855 5854 5853 5852 5851 5850 5850 5849 5848 5847 5847 5846 5845 5843 5842 5841 5840 5838 5837 5836
5804 5808 5812 5818 5821 5826 5830 5833 5836 5838 5841 5843 5846 5849 5851 5852 5852 5853 5853 5853 5852 5852 5851 5850 5849 5848 5847 5846 5846 5845 5845 5844 5843 5842 5841 5840 5839 5838 5837 5835 5834 5832 5831 5829
5796 5801 5807 5811 5815 5819 5822 5826 5829 5831 5834 5837 5839 5842 5844 5845 5846 5847 5847 5847 5846 5846 5846 5845 5843 5842 5841 5840 5840 5840 5839 5838 5837 5836 5835 5834 5833 5832 5830 5829 5827 5826 5825 5823
5789 5795 5799 5804 5807 5811 5815 5818 5822 5825 5827 5830 5833 5835 5837 5839 5840 5840 5840 5841 5841 5840 5840 5839 5837 5836 5835 5835 5834 5834 5833 5832 5831 5830 5829 5828 5826 5825 5824 5822 5821 5819 5818 5816
5781 5786 5791 5796 5800 5803 5807 5811 5814 5817 5820 5823 5826 5828 5830 5832 5833 5833 5834 5834 5834 5833 5833 5832 5831 5830 5829 5828 5828 5828 5827 5826 5825 5824 5823 5821 5820 5819 5817 5816 5814 5812 5811 5809
5772 5778 5783 5788 5792 5796 5800 5803 5806 5809 5813 5816 5818 5820 5822 5824 5825 5826 5826 5827 5827 5826 5826 5825 5824 5824 5823 5822 5821 5822 5821 5820 5819 5817 5816 5815 5814 5812 5810 5809 5807 5806 5804 5802
5764 5769 5775 5779 5784 5788 5792 5795 5799 5802 5805 5808 5810 5813 5815 5816 5817 5818 5819 5819 5819 5819 5818 5818 5817 5817 5816 5816 5816 5816 5815 5814 5812 5811 5810 5808 5807 5805 5804 5802 5801 5799 5797 5795
5755 5760 5766 5771 5775 5780 5784 5787 5791 5794 5797 5800 5803 5805 5807 5808 5810 5811 5811 5812 5812 5811 5811 5811 5811 5811 5810 5810 5810 5809 5808 5807 5806 5804 5803 5801 5800 5798 5797 5796 5794 5792 5790 5789
5747 5752 5757 5763 5767 5771 5776 5779 5783 5786 5789 5792 5795 5798 5800 5801 5802 5804 5804 5805 5805 5805 5805 5805 5805 5805 5804 5804 5804 5803 5801 5800 5799 5798 5796 5795 5793 5792 5790 5789 5787 5786 5784 5782
5739 5744 5749 5754 5759 5763 5767 5772 5775 5778 5782 5785 5787 5790 5792 5794 5795 5796 5797 5798 5798 5799 5799 5799 5798 5798 5798 5798 5797 5796 5795 5794 5792 5791 5790 5788 5787 5785 5784 5782 5781 5779 5778 5776
5732 5737 5742 5746 5751 5755 5760 5764 5768 5771 5774 5777 5780 5782 5784 5786 5787 5789 5790 5790 5791 5792 5792 5792 5792 5791 5791 5791 5790 5789 5788 5787 5786 5785 5783 5782 5781 5779 5778 5776 5775 5773 5771 5769
5724 5729 5734 5739 5743 5748 5752 5756 5760 5763 5766 5769 5772 5774 5777 5778 5780 5781 5783 5784 5785 5785 5785 5785 5785 5785 5784 5784 5783 5783 5782 5781 5780 5778 5777 5776 5775 5773 5772 5770 5768 5766 5764 5762
5718 5723 5727 5731 5736 5740 5745 5749 5753 5756 5759 5762 5765 5767 5770 5772 5773 5775 5776 5777 5778 5779 5779 5779 5779 5778 5778 5777 5777 5776 5775 5774 5774 5773 5771 5770 5769 5767 5765 5764 5762 5760 5758 5756
5712 5717 5721 5726 5730 5734 5738 5742 5746 5750 5753 5756 5758 5761 5763 5765 5766 5768 5770 5771 5772 5772 5772 5772 5772 5772 5772 5771 5771 5770 5770 5769 5768 5767 5766 5764 5763 5761 5759 5757 5755 5753 5752 5749
5707 5711 5716 5720 5725 5729 5733 5736 5740 5743 5746 5749 5752 5754 5757 5759 5760 5762 5764 5765 5766 5766 5766 5767 5767 5766 5766 5766 5765 5765 5764 5763 5762 5761 5760 5759 5757 5756 5754 5752 5750 5747 5745 5743
5702 5707 5711 5715 5720 5723 5727 5730 5734 5737 5741 5743 5746 5748 5750 5752 5754 5756 5758 5759 5760 5760 5761 5761 5761 5761 5761 5761 5760 5760 5759 5758 5757 5756 5755 5753 5752 5750 5748 5746 5744 5742 5740 5737
5699 5703 5707 5711 5715 5719 5722 5726 5729 5732 5735 5738 5740 5742 5744 5746 5749 5751 5752 5754 5754 5755 5755 5755 5756 5756 5756 5755 5755 5755 5754 5753 5752 5751 5749 5748 5746 5745 5743 5741 5739 5736 5733 5731
5695 5699 5703 5707 5711 5715 5718 5721 5724 5727 5730 5733 5735 5737 5740 5742 5744 5746 5747 5749 5749 5750 5750 5750 5751 5751 5751 5751 5751 5750 5749 5748 5747 5746 5744 5743 5741 5739 5737 5735 5732 5730 5727 5724
5693 5697 5701 5704 5708 5711 5714 5717 5720 5723 5726 5728 5730 5733 5735 5737 5739 5741 5743 5744 5745 5745 5746 5746 5746 5746 5746 5746 5746 5745 5744 5743 5742 5740 5739 5737 5736 5734 5731 5729 5726 5723 5721 5718
5691 5695 5698 5701 5705 5708 5711 5714 5717 5719 5721 5724 5726 5729 5731 5733 5736 5737 5739 5740 5741 5741 5742 5742 5742 5742 5742 5742 5741 5740 5739 5738 5737 5735 5734 5732 5730 5728 5725 5723 5720 5717 5714 5711
5689 5693 5696 5699 5702 5705 5708 5711 5713 5716 5718 5721 5723 5726 5728 5730 5732 5734 5735 5736 5737 5738 5738 5738 5739 5738 5738 5738 5737 5736 5735 5733 5732 5730 5728 5726 5724 5721 5719 5716 5714 5711 5708 5705
5688 5691 5695 5697 5700 5703 5706 5709 5711 5714 5717 5719 5721 5723 5725 5727 5729 5730 5732 5733 5734 5734 5735 5735 5735 5735 5734 5733 5732 5731 5730 5728 5726 5724 5722 5720 5717 5715 5713 5710 5707 5704 5701 5698